Location: Saluda
(35.2377°N, 82.3468°W)
Time: 04:17:58
(UTC+00:00)

Vanguard 2 - Pass Details

Date: 10 October 2022
Orbit: 553 x 2933 km, 32.9° (Epoch: 26 November)

Event Time Altitude Azimuth Distance (km) Brightness Sun altitude
Rises 20:57:53 0° 280° (W) 5,076 12.5 23.0°
Reaches altitude 10° 21:00:50 10° 277° (W) 4,357 12.4 22.5°
Maximum altitude 21:13:22 58° 202° (SSW) 2,887 11.2 20.2°
Drops below altitude 10° 21:30:28 10° 130° (SE) 5,757 11.7 17.0°
Sets 21:35:04 0° 127° (SE) 6,745 12.0 16.1°
